Tracking 20083 objects as of 10-Dec-2019
HD Live streaming from Space Station
objects crossing your sky now

STARLINK 1036

Track STARLINK 1036 now!
10-day predictions
STARLINK 1036 is classified as:


NORAD ID: 44741
Int'l Code: 2019-074AE
Perigee: 355.5 km
Apogee: 358.0 km
Inclination: 53.0 °
Period: 91.5 minutes
Semi major axis: 6727 km
RCS: Unknown
Launch date: November 11, 2019
Source: United States (US)
Launch site: AIR FORCE EASTERN TEST RANGE (AFETR)
aabbcc
Your satellite tracking list
Your tracking list is empty




NASA's NSSDC Master Catalog

Two Line Element Set (TLE):
1 44741U 19074AE  19344.25002315 -.00016827  00000-0 -11546-3 0  9996
2 44741  53.0093  28.1842 0001864  36.3294   0.7284 15.73242107  4527
Source of the keplerian elements: AFSPC